,,Stat5,,Stat1,,Stat2,,Stat3,,Stat4,,Wind1,,Wind1,
time,status,PA1M_AVG,status,PR1M_SUM,status,RH1M_AVG,status,SR1M_AVG,status,TA1M_AVG,status,W1dAve1m,status,W1sAve1m,
2000-10-07, 00:00:01,VALID,918.834,VALID,0,VALID,95.2686,VALID,-0.101885,VALID,20.8028,VALID,95,VALID,0.100195,
2000-10-07, 00:01:01,VALID,918.837,VALID,0,VALID,95.4123,VALID,0,VALID,20.7955,VALID,95,VALID,0,
2000-10-07, 00:02:01,VALID,918.836,VALID,0,VALID,95.4835,VALID,0,VALID,20.7818,VALID,95,VALID,0,
2000-10-07, 00:03:01,VALID,918.844,VALID,0,VALID,95.4555,VALID,-0.0169808,VALID,20.7823,VALID,96,VALID,0.272821,
2000-10-07, 00:04:01,VALID,918.837,VALID,0,VALID,95.411,VALID,0,VALID,20.7729,VALID,91,VALID,0.325955,
2000-10-07, 00:05:01,VALID,918.823,VALID,0,VALID,95.4581,VALID,-0.0169808,VALID,20.7503,VALID,99,VALID,0.360547,
2000-10-07, 00:06:01,VALID,918.808,VALID,0,VALID,95.5267,VALID,0,VALID,20.7535,VALID,99,VALID,0.778711,
2000-10-07, 00:07:00,VALID,918.809,VALID,0,VALID,95.6069,VALID,-0.0509425,VALID,20.7538,VALID,92,VALID,0.628289,
2000-10-07, 00:08:00,VALID,918.791,VALID,0,VALID,95.6692,VALID,-0.0339617,VALID,20.7341,VALID,90,VALID,0.523247,
2000-10-07, 00:09:00,VALID,918.788,VALID,0,VALID,95.701,VALID,-0.0169808,VALID,20.7247,VALID,65,VALID,0.321915,
2000-10-07, 00:10:00,VALID,918.776,VALID,0,VALID,95.8103,VALID,-0.0339617,VALID,20.6924,VALID,59,VALID,0,
2000-10-07, 00:11:00,VALID,918.769,VALID,0,VALID,95.8828,VALID,0,VALID,20.6695,VALID,36,VALID,0.193462,
2000-10-07, 00:12:00,VALID,918.792,VALID,0,VALID,95.9642,VALID,0,VALID,20.6466,VALID,299,VALID,0,
2000-10-07, 00:13:00,VALID,918.792,VALID,0,VALID,96.0049,VALID,0,VALID,20.6496,VALID,298,VALID,0.0569853,
2000-10-07, 00:14:00,VALID,918.796,VALID,0,VALID,95.9934,VALID,-0.0169808,VALID,20.6692,VALID,302,VALID,0.0577363,
2000-10-07, 00:15:00,VALID,918.8,VALID,0,VALID,95.8904,VALID,0,VALID,20.663,VALID,310,VALID,0,
2000-10-07, 00:16:00,VALID,918.79,VALID,0,VALID,96.0367,VALID,-0.0169808,VALID,20.6498,VALID,280,VALID,0,
2000-10-07, 00:17:00,VALID,918.8,VALID,0,VALID,96.2083,VALID,-0.0509425,VALID,20.6469,VALID,286,VALID,0,
2000-10-07, 00:18:00,VALID,918.771,VALID,0,VALID,96.2808,VALID,-0.0339617,VALID,20.6339,VALID,294,VALID,0,
2000-10-07, 00:19:00,VALID,918.769,VALID,0,VALID,96.3927,VALID,-0.0169808,VALID,20.6218,VALID,294,VALID,0,
2000-10-07, 00:20:00,VALID,918.756,VALID,0,VALID,96.525,VALID,-0.0169808,VALID,20.618,VALID,294,VALID,0,
2000-10-07, 00:21:00,VALID,918.746,VALID,0,VALID,96.6547,VALID,0,VALID,20.6566,VALID,308,VALID,0,
2000-10-07, 00:22:00,VALID,918.75,VALID,0,VALID,96.628,VALID,-0.0169808,VALID,20.6727,VALID,319,VALID,0,
2000-10-07, 00:23:00,VALID,918.728,VALID,0,VALID,96.5517,VALID,-0.0339617,VALID,20.6827,VALID,318,VALID,0,
2000-10-07, 00:24:00,VALID,918.73,VALID,0,VALID,96.4601,VALID,-0.0339617,VALID,20.6916,VALID,318,VALID,0,
2000-10-07, 00:25:00,VALID,918.72,VALID,0,VALID,96.3686,VALID,-0.0339617,VALID,20.6821,VALID,318,VALID,0,
2000-10-07, 00:26:00,VALID,918.712,VALID,0,VALID,96.2541,VALID,-0.0339617,VALID,20.6894,VALID,317,VALID,0,
2000-10-07, 00:27:00,VALID,918.703,VALID,0,VALID,96.0189,VALID,-0.0339617,VALID,20.6827,VALID,298,VALID,0,
2000-10-07, 00:28:00,VALID,918.682,VALID,0,VALID,95.734,VALID,-0.0169808,VALID,20.6926,VALID,293,VALID,0,
2000-10-07, 00:29:00,VALID,918.673,VALID,0,VALID,95.8307,VALID,0,VALID,20.7118,VALID,293,VALID,0,
2000-10-07, 00:30:00,VALID,918.659,VALID,0,VALID,95.8281,VALID,0,VALID,20.7048,VALID,309,VALID,0,
2000-10-07, 00:31:00,VALID,918.654,VALID,0,VALID,95.7582,VALID,-0.0169808,VALID,20.6991,VALID,319,VALID,0,
2000-10-07, 00:32:00,VALID,918.64,VALID,0,VALID,95.6679,VALID,-0.0339617,VALID,20.6794,VALID,318,VALID,0,
2000-10-07, 00:33:00,VALID,918.626,VALID,0,VALID,95.7124,VALID,-0.0169808,VALID,20.6697,VALID,320,VALID,0,
2000-10-07, 00:34:00,VALID,918.616,VALID,0,VALID,95.8357,VALID,-0.0339617,VALID,20.6827,VALID,304,VALID,0,
2000-10-07, 00:35:00,VALID,918.595,VALID,0,VALID,95.8879,VALID,-0.0339617,VALID,20.6668,VALID,300,VALID,0,
2000-10-07, 00:36:00,VALID,918.587,VALID,0,VALID,95.8752,VALID,-0.0679233,VALID,20.6765,VALID,231,VALID,0,
2000-10-07, 00:37:00,VALID,918.563,VALID,0,VALID,95.9273,VALID,0,VALID,20.67,VALID,116,VALID,0,
2000-10-07, 00:38:00,VALID,918.551,VALID,0,VALID,95.8981,VALID,-0.0169808,VALID,20.6603,VALID,117,VALID,0,
2000-10-07, 00:39:00,VALID,918.549,VALID,0,VALID,95.8853,VALID,-0.0339617,VALID,20.673,VALID,178,VALID,0,
2000-10-07, 00:40:00,VALID,918.543,VALID,0,VALID,95.9235,VALID,-0.0169808,VALID,20.6735,VALID,275,VALID,0,
2000-10-07, 00:41:00,VALID,918.553,VALID,0,VALID,96.0456,VALID,-0.0509425,VALID,20.6633,VALID,275,VALID,0,
2000-10-07, 00:42:00,VALID,918.564,VALID,0,VALID,96.1982,VALID,-0.0169808,VALID,20.6794,VALID,272,VALID,0,
2000-10-07, 00:43:00,VALID,918.572,VALID,0,VALID,96.2147,VALID,-0.0339617,VALID,20.6862,VALID,261,VALID,0,
2000-10-07, 00:44:00,VALID,918.568,VALID,0,VALID,96.1689,VALID,-0.0339617,VALID,20.6924,VALID,162,VALID,0,
2000-10-07, 00:45:00,VALID,918.588,VALID,0,VALID,95.9273,VALID,-0.0169808,VALID,20.6988,VALID,122,VALID,0,
2000-10-07, 00:46:00,VALID,918.594,VALID,0,VALID,95.8726,VALID,0,VALID,20.6988,VALID,114,VALID,0,
2000-10-07, 00:47:00,VALID,918.596,VALID,0,VALID,95.9057,VALID,-0.0169808,VALID,20.6956,VALID,114,VALID,0,
2000-10-07, 00:48:00,VALID,918.587,VALID,0,VALID,96.0354,VALID,0,VALID,20.7185,VALID,100,VALID,0,
2000-10-07, 00:49:00,VALID,918.576,VALID,0,VALID,95.9095,VALID,0,VALID,20.7384,VALID,102,VALID,0,
2000-10-07, 00:50:00,VALID,918.565,VALID,0,VALID,95.7531,VALID,0,VALID,20.7279,VALID,103,VALID,0,
2000-10-07, 00:51:00,VALID,918.557,VALID,0,VALID,95.7226,VALID,-0.0339617,VALID,20.7147,VALID,103,VALID,0,
2000-10-07, 00:52:00,VALID,918.538,VALID,0,VALID,95.7277,VALID,-0.0339617,VALID,20.7018,VALID,103,VALID,0,
2000-10-07, 00:53:00,VALID,918.525,VALID,0,VALID,95.6641,VALID,-0.0169808,VALID,20.6886,VALID,103,VALID,0,
2000-10-07, 00:54:00,VALID,918.518,VALID,0,VALID,95.6425,VALID,-0.0339617,VALID,20.712,VALID,103,VALID,0,
2000-10-07, 00:55:00,VALID,918.508,VALID,0,VALID,95.6768,VALID,-0.0169808,VALID,20.7284,VALID,116,VALID,0,
2000-10-07, 00:56:00,VALID,918.507,VALID,0,VALID,95.5458,VALID,-0.0169808,VALID,20.7376,VALID,126,VALID,0,
2000-10-07, 00:57:00,VALID,918.489,VALID,0,VALID,95.4505,VALID,-0.0509425,VALID,20.7408,VALID,126,VALID,0,
2000-10-07, 00:58:00,VALID,918.485,VALID,0,VALID,95.4021,VALID,-0.0509425,VALID,20.7473,VALID,126,VALID,0,
2000-10-07, 00:59:00,VALID,918.484,VALID,0,VALID,95.3691,VALID,-0.0339617,VALID,20.7669,VALID,125,VALID,0,
2000-10-07, 01:00:00,VALID,918.458,VALID,0,VALID,95.3055,VALID,-0.0169808,VALID,20.7804,VALID,125,VALID,0,
2000-10-07, 01:01:00,VALID,918.452,VALID,0,VALID,95.2775,VALID,-0.0509425,VALID,20.7766,VALID,125,VALID,0,
2000-10-07, 01:02:00,VALID,918.43,VALID,0,VALID,95.2406,VALID,0,VALID,20.7699,VALID,113,VALID,0,
2000-10-07, 01:03:00,VALID,918.422,VALID,0,VALID,95.3665,VALID,-0.0169808,VALID,20.7702,VALID,107,VALID,0,
2000-10-07, 01:04:00,VALID,918.414,VALID,0,VALID,95.4123,VALID,0.0169808,VALID,20.7535,VALID,104,VALID,0,
2000-10-07, 01:05:00,VALID,918.406,VALID,0,VALID,95.439,VALID,0,VALID,20.7497,VALID,104,VALID,0,
2000-10-07, 01:06:00,VALID,918.389,VALID,0,VALID,95.3653,VALID,0.0169808,VALID,20.7468,VALID,104,VALID,0,
2000-10-07, 01:07:00,VALID,918.389,VALID,0,VALID,95.3551,VALID,0,VALID,20.7242,VALID,107,VALID,0,
2000-10-07, 01:08:00,VALID,918.383,VALID,0,VALID,95.3792,VALID,0,VALID,20.712,VALID,107,VALID,0,
2000-10-07, 01:09:00,VALID,918.39,VALID,0,VALID,95.4911,VALID,0.0169808,VALID,20.6921,VALID,93,VALID,0.304054,
2000-10-07, 01:10:00,VALID,918.389,VALID,0,VALID,95.4161,VALID,0,VALID,20.6797,VALID,98,VALID,0.517004,
2000-10-07, 01:11:00,VALID,918.401,VALID,0,VALID,95.3843,VALID,0,VALID,20.6474,VALID,92,VALID,0.381546,
2000-10-07, 01:12:00,VALID,918.393,VALID,0,VALID,95.3246,VALID,0,VALID,20.5884,VALID,70,VALID,0.193051,
2000-10-07, 01:13:00,VALID,918.381,VALID,0,VALID,95.5865,VALID,-0.0169808,VALID,20.5464,VALID,70,VALID,0,
2000-10-07, 01:14:00,VALID,918.378,VALID,0,VALID,95.8256,VALID,0,VALID,20.547,VALID,70,VALID,0,
2000-10-07, 01:15:00,VALID,918.365,VALID,0,VALID,95.8294,VALID,-0.0169808,VALID,20.5373,VALID,70,VALID,0.0333615,
2000-10-07, 01:16:00,VALID,918.352,VALID,0,VALID,95.8103,VALID,0,VALID,20.4918,VALID,64,VALID,0.136029,
2000-10-07, 01:17:00,VALID,918.344,VALID,0,VALID,95.8103,VALID,0,VALID,20.4697,VALID,94,VALID,0.376056,
2000-10-07, 01:18:00,VALID,918.315,VALID,0,VALID,95.9286,VALID,0,VALID,20.4465,VALID,92,VALID,0.0244141,
2000-10-07, 01:19:00,VALID,918.316,VALID,0,VALID,96.1028,VALID,0,VALID,20.443,VALID,87,VALID,0.247196,
2000-10-07, 01:20:00,VALID,918.304,VALID,0,VALID,96.2261,VALID,0,VALID,20.456,VALID,95,VALID,0.50558,
2000-10-07, 01:21:00,VALID,918.296,VALID,0,VALID,96.2973,VALID,0,VALID,20.453,VALID,88,VALID,0.782517,
2000-10-07, 01:22:00,VALID,918.289,VALID,0,VALID,96.3406,VALID,0.0169808,VALID,20.4463,VALID,80,VALID,0.835018,
2000-10-07, 01:23:00,VALID,918.282,VALID,0,VALID,96.408,VALID,0.0169808,VALID,20.4396,VALID,89,VALID,0.439611,
2000-10-07, 01:24:00,VALID,918.265,VALID,0,VALID,96.5237,VALID,0,VALID,20.4465,VALID,94,VALID,0.752262,
2000-10-07, 01:25:00,VALID,918.237,VALID,0,VALID,96.4016,VALID,0.0169808,VALID,20.4366,VALID,82,VALID,0.903577,
2000-10-07, 01:26:00,VALID,918.228,VALID,0,VALID,96.3101,VALID,0,VALID,20.414,VALID,99,VALID,1.04866,
2000-10-07, 01:27:00,VALID,918.203,VALID,0,VALID,96.2745,VALID,0,VALID,20.4015,VALID,79,VALID,1.16068,
2000-10-07, 01:28:00,VALID,918.198,VALID,0,VALID,96.2897,VALID,0.0339617,VALID,20.3657,VALID,78,VALID,1.1057,
2000-10-07, 01:29:00,VALID,918.182,VALID,0,VALID,96.4143,VALID,0,VALID,20.3362,VALID,77,VALID,0.75359,
2000-10-07, 01:30:00,VALID,918.168,VALID,0,VALID,96.4715,VALID,0.0169808,VALID,20.317,VALID,77,VALID,0.728027,
2000-10-07, 01:31:00,VALID,918.146,VALID,0,VALID,96.628,VALID,-0.101885,VALID,20.3156,VALID,96,VALID,0.664864,
2000-10-07, 01:32:00,VALID,918.138,VALID,0,VALID,96.6928,VALID,-0.118866,VALID,20.3161,VALID,69,VALID,0.933705,
2000-10-07, 01:33:00,VALID,918.121,VALID,0,VALID,96.7564,VALID,-0.101885,VALID,20.2895,VALID,83,VALID,0.698057,
2000-10-07, 01:34:00,VALID,918.121,VALID,0,VALID,96.8314,VALID,-0.101885,VALID,20.28,VALID,82,VALID,0.418428,
2000-10-07, 01:35:00,VALID,918.121,VALID,0,VALID,96.8975,VALID,-0.135847,VALID,20.2806,VALID,104,VALID,0.523226,
2000-10-07, 01:36:00,VALID,918.132,VALID,0,VALID,96.9764,VALID,-0.0849042,VALID,20.2835,VALID,87,VALID,0.790296,
2000-10-07, 01:37:00,VALID,918.115,VALID,0,VALID,96.9573,VALID,-0.101885,VALID,20.2604,VALID,88,VALID,1.21073,
2000-10-07, 01:38:00,VALID,918.115,VALID,0,VALID,97.0654,VALID,-0.118866,VALID,20.2644,VALID,73,VALID,0.498214,
2000-10-07, 01:39:00,VALID,918.12,VALID,0,VALID,97.0539,VALID,-0.101885,VALID,20.2448,VALID,68,VALID,0.568834,
2000-10-07, 01:40:00,VALID,918.12,VALID,0,VALID,97.0094,VALID,-0.101885,VALID,20.206,VALID,49,VALID,1.00115,
2000-10-07, 01:41:00,VALID,918.105,VALID,0,VALID,97.0972,VALID,-0.135847,VALID,20.1963,VALID,92,VALID,0.775971,
2000-10-07, 01:42:00,VALID,918.103,VALID,0,VALID,97.1836,VALID,-0.101885,VALID,20.1963,VALID,79,VALID,0.703369,
2000-10-07, 01:43:00,VALID,918.082,VALID,0,VALID,97.176,VALID,-0.135847,VALID,20.1965,VALID,70,VALID,0.657051,
2000-10-07, 01:44:00,VALID,918.076,VALID,0,VALID,97.1875,VALID,-0.101885,VALID,20.1836,VALID,81,VALID,0.767634,
2000-10-07, 01:45:00,VALID,918.059,VALID,0,VALID,97.2587,VALID,-0.101885,VALID,20.1734,VALID,79,VALID,0.233108,
2000-10-07, 01:46:00,VALID,918.041,VALID,0,VALID,97.293,VALID,0.0169808,VALID,20.1719,VALID,23,VALID,0.0898438,
2000-10-07, 01:47:00,VALID,918.019,VALID,0,VALID,97.3706,VALID,0.0169808,VALID,20.1721,VALID,42,VALID,0,
2000-10-07, 01:48:00,VALID,918.013,VALID,0,VALID,97.424,VALID,0.0169808,VALID,20.1811,VALID,42,VALID,0,
2000-10-07, 01:49:00,VALID,917.989,VALID,0,VALID,97.4621,VALID,0,VALID,20.1945,VALID,42,VALID,0,
2000-10-07, 01:50:00,VALID,917.988,VALID,0,VALID,97.4812,VALID,0,VALID,20.2039,VALID,42,VALID,0,
2000-10-07, 01:51:00,VALID,917.986,VALID,0,VALID,97.5257,VALID,-0.0169808,VALID,20.2368,VALID,52,VALID,0,
2000-10-07, 01:52:00,VALID,917.978,VALID,0,VALID,97.5206,VALID,0,VALID,20.2591,VALID,82,VALID,0,
2000-10-07, 01:53:00,VALID,917.974,VALID,0,VALID,97.4265,VALID,0,VALID,20.2726,VALID,93,VALID,0,
2000-10-07, 01:54:00,VALID,917.976,VALID,0,VALID,97.3464,VALID,0,VALID,20.2825,VALID,93,VALID,0,
2000-10-07, 01:55:00,VALID,917.968,VALID,0,VALID,97.293,VALID,0.0169808,VALID,20.2823,VALID,93,VALID,0,
2000-10-07, 01:56:00,VALID,917.953,VALID,0,VALID,97.2472,VALID,0,VALID,20.2919,VALID,95,VALID,0,
2000-10-07, 01:57:00,VALID,917.95,VALID,0,VALID,97.1862,VALID,-0.0169808,VALID,20.3049,VALID,95,VALID,0,
2000-10-07, 01:58:00,VALID,917.942,VALID,0,VALID,97.1824,VALID,0,VALID,20.2984,VALID,95,VALID,0,
2000-10-07, 01:59:00,VALID,917.927,VALID,0,VALID,97.2129,VALID,0,VALID,20.3146,VALID,95,VALID,0,
2000-10-07, 02:00:00,VALID,917.929,VALID,0,VALID,97.1531,VALID,-0.0169808,VALID,20.3178,VALID,95,VALID,0,
2000-10-07, 02:01:00,VALID,917.93,VALID,0,VALID,97.1442,VALID,-0.0169808,VALID,20.3213,VALID,95,VALID,0,
2000-10-07, 02:02:00,VALID,917.92,VALID,0,VALID,97.1544,VALID,0,VALID,20.3208,VALID,98,VALID,0,
2000-10-07, 02:03:00,VALID,917.913,VALID,0,VALID,97.0476,VALID,-0.0169808,VALID,20.3181,VALID,102,VALID,0,
2000-10-07, 02:04:00,VALID,917.919,VALID,0,VALID,96.9344,VALID,0,VALID,20.2954,VALID,102,VALID,0,
2000-10-07, 02:05:00,VALID,917.906,VALID,0,VALID,96.9891,VALID,0,VALID,20.2857,VALID,102,VALID,0,
2000-10-07, 02:06:00,VALID,917.91,VALID,0,VALID,97.0209,VALID,-0.0509425,VALID,20.2892,VALID,102,VALID,0,
2000-10-07, 02:07:00,VALID,917.903,VALID,0,VALID,96.9471,VALID,0,VALID,20.2855,VALID,102,VALID,0,
2000-10-07, 02:08:00,VALID,917.888,VALID,0,VALID,96.9153,VALID,0,VALID,20.2723,VALID,102,VALID,0,
2000-10-07, 02:09:00,VALID,917.869,VALID,0,VALID,96.8212,VALID,0,VALID,20.2626,VALID,85,VALID,0,
2000-10-07, 02:10:00,VALID,917.862,VALID,0,VALID,96.6865,VALID,0.0169808,VALID,20.2661,VALID,86,VALID,0,
2000-10-07, 02:11:00,VALID,917.834,VALID,0,VALID,96.6051,VALID,0,VALID,20.243,VALID,106,VALID,0,
2000-10-07, 02:12:00,VALID,917.83,VALID,0,VALID,96.4944,VALID,0,VALID,20.2472,VALID,117,VALID,0,
2000-10-07, 02:13:00,VALID,917.813,VALID,0,VALID,96.4499,VALID,0,VALID,20.2539,VALID,117,VALID,0,
2000-10-07, 02:14:00,VALID,917.822,VALID,0,VALID,96.4105,VALID,0,VALID,20.2527,VALID,117,VALID,0,
2000-10-07, 02:15:00,VALID,917.815,VALID,0,VALID,96.2897,VALID,0,VALID,20.2402,VALID,100,VALID,0,
2000-10-07, 02:16:00,VALID,917.817,VALID,0,VALID,96.1562,VALID,-0.0169808,VALID,20.205,VALID,71,VALID,0,
2000-10-07, 02:17:00,VALID,917.815,VALID,0,VALID,96.221,VALID,0.0169808,VALID,20.1853,VALID,71,VALID,0,
2000-10-07, 02:18:00,VALID,917.807,VALID,0,VALID,96.2516,VALID,0,VALID,20.1729,VALID,71,VALID,0,
2000-10-07, 02:19:00,VALID,917.802,VALID,0,VALID,96.2973,VALID,0,VALID,20.1495,VALID,65,VALID,0.228165,
2000-10-07, 02:20:00,VALID,917.799,VALID,0,VALID,96.3469,VALID,0,VALID,20.1398,VALID,71,VALID,0.328571,
2000-10-07, 02:21:00,VALID,917.787,VALID,0,VALID,96.4474,VALID,0,VALID,20.1202,VALID,92,VALID,0.147593,
2000-10-07, 02:22:00,VALID,917.786,VALID,0,VALID,96.5135,VALID,0,VALID,20.1339,VALID,100,VALID,0,
2000-10-07, 02:23:00,VALID,917.769,VALID,0,VALID,96.5326,VALID,0,VALID,20.1409,VALID,100,VALID,0,
2000-10-07, 02:24:00,VALID,917.753,VALID,0,VALID,96.6152,VALID,0,VALID,20.1471,VALID,100,VALID,0,
2000-10-07, 02:25:00,VALID,917.751,VALID,0,VALID,96.6407,VALID,0,VALID,20.1401,VALID,100,VALID,0,
2000-10-07, 02:26:00,VALID,917.741,VALID,0,VALID,96.6,VALID,0,VALID,20.1334,VALID,100,VALID,0,
2000-10-07, 02:27:00,VALID,917.733,VALID,0,VALID,96.6254,VALID,0,VALID,20.1503,VALID,100,VALID,0,
2000-10-07, 02:28:00,VALID,917.719,VALID,0,VALID,96.633,VALID,-0.0169808,VALID,20.1637,VALID,100,VALID,0,
2000-10-07, 02:29:00,VALID,917.715,VALID,0,VALID,96.6203,VALID,-0.0169808,VALID,20.1535,VALID,100,VALID,0,
2000-10-07, 02:30:00,VALID,917.7,VALID,0,VALID,96.6369,VALID,0,VALID,20.1503,VALID,100,VALID,0,
2000-10-07, 02:31:00,VALID,917.695,VALID,0,VALID,96.6928,VALID,-0.101885,VALID,20.1645,VALID,100,VALID,0,
2000-10-07, 02:32:00,VALID,917.693,VALID,0,VALID,96.7221,VALID,-0.101885,VALID,20.161,VALID,100,VALID,0,
2000-10-07, 02:33:00,VALID,917.678,VALID,0,VALID,96.7297,VALID,-0.101885,VALID,20.1516,VALID,121,VALID,0,
2000-10-07, 02:34:00,VALID,917.668,VALID,0,VALID,96.778,VALID,-0.0849042,VALID,20.1379,VALID,259,VALID,0,
2000-10-07, 02:35:00,VALID,917.658,VALID,0,VALID,96.8136,VALID,-0.0849042,VALID,20.1553,VALID,259,VALID,0,
2000-10-07, 02:36:00,VALID,917.644,VALID,0,VALID,96.8251,VALID,-0.101885,VALID,20.1548,VALID,258,VALID,0,
2000-10-07, 02:37:00,VALID,917.633,VALID,0,VALID,96.8187,VALID,-0.101885,VALID,20.1575,VALID,243,VALID,0,
2000-10-07, 02:38:00,VALID,917.61,VALID,0,VALID,96.7933,VALID,-0.0679233,VALID,20.1645,VALID,243,VALID,0,
2000-10-07, 02:39:00,VALID,917.602,VALID,0,VALID,96.6903,VALID,-0.118866,VALID,20.1782,VALID,162,VALID,0,
2000-10-07, 02:40:00,VALID,917.589,VALID,0,VALID,96.5606,VALID,-0.0849042,VALID,20.1483,VALID,135,VALID,0,
2000-10-07, 02:41:00,VALID,917.598,VALID,0,VALID,96.5796,VALID,-0.101885,VALID,20.1419,VALID,135,VALID,0,
2000-10-07, 02:42:00,VALID,917.579,VALID,0,VALID,96.5746,VALID,-0.101885,VALID,20.1416,VALID,135,VALID,0,
2000-10-07, 02:43:00,VALID,917.573,VALID,0,VALID,96.5606,VALID,-0.0679233,VALID,20.1349,VALID,135,VALID,0,
2000-10-07, 02:44:00,VALID,917.578,VALID,0,VALID,96.5351,VALID,-0.101885,VALID,20.1384,VALID,135,VALID,0,
2000-10-07, 02:45:00,VALID,917.567,VALID,0,VALID,96.5237,VALID,-0.101885,VALID,20.1359,VALID,135,VALID,0,
2000-10-07, 02:46:00,VALID,917.564,VALID,0,VALID,96.4131,VALID,0,VALID,20.1269,VALID,135,VALID,0,
2000-10-07, 02:47:00,VALID,917.567,VALID,0,VALID,96.2465,VALID,0.0169808,VALID,20.1185,VALID,135,VALID,0,
2000-10-07, 02:48:00,VALID,917.557,VALID,0,VALID,96.1753,VALID,0,VALID,20.0949,VALID,135,VALID,0,
2000-10-07, 02:49:00,VALID,917.555,VALID,0,VALID,96.1575,VALID,0,VALID,20.0991,VALID,135,VALID,0.0209704,
2000-10-07, 02:50:00,VALID,917.559,VALID,0,VALID,96.0799,VALID,0.0169808,VALID,20.0819,VALID,133,VALID,0.263616,
2000-10-07, 02:51:00,VALID,917.558,VALID,0,VALID,95.8993,VALID,0.0169808,VALID,20.0601,VALID,119,VALID,0.366976,
2000-10-07, 02:52:00,VALID,917.552,VALID,0,VALID,95.8993,VALID,0,VALID,20.0243,VALID,112,VALID,0.314568,
2000-10-07, 02:53:00,VALID,917.552,VALID,0,VALID,95.8675,VALID,0,VALID,19.9828,VALID,98,VALID,0.149282,
2000-10-07, 02:54:00,VALID,917.548,VALID,0,VALID,95.893,VALID,0,VALID,19.9661,VALID,87,VALID,0.0686035,
2000-10-07, 02:55:00,VALID,917.535,VALID,0,VALID,95.9667,VALID,0.0169808,VALID,19.9696,VALID,86,VALID,0.000400641,
2000-10-07, 02:56:00,VALID,917.524,VALID,0,VALID,95.8714,VALID,0,VALID,19.9599,VALID,84,VALID,0.0524554,
2000-10-07, 02:57:00,VALID,917.509,VALID,0,VALID,95.9337,VALID,0,VALID,19.9699,VALID,84,VALID,0,
2000-10-07, 02:58:00,VALID,917.501,VALID,0,VALID,95.8408,VALID,0,VALID,19.9661,VALID,84,VALID,0,
2000-10-07, 02:59:00,VALID,917.486,VALID,0,VALID,95.809,VALID,0,VALID,19.9796,VALID,84,VALID,0,
2000-10-07, 03:00:00,VALID,917.476,VALID,0,VALID,95.9057,VALID,-0.0169808,VALID,19.9855,VALID,84,VALID,0,
2000-10-07, 03:01:00,VALID,917.461,VALID,0,VALID,96.015,VALID,0,VALID,19.9917,VALID,84,VALID,0,
2000-10-07, 03:02:00,VALID,917.451,VALID,0,VALID,96.1015,VALID,0,VALID,19.9952,VALID,84,VALID,0,
2000-10-07, 03:03:00,VALID,917.443,VALID,0,VALID,96.1931,VALID,-0.0169808,VALID,19.9917,VALID,84,VALID,0,
2000-10-07, 03:04:00,VALID,917.441,VALID,0,VALID,96.2897,VALID,0.0169808,VALID,20.0012,VALID,84,VALID,0,
2000-10-07, 03:05:00,VALID,917.436,VALID,0,VALID,96.3482,VALID,0,VALID,19.9885,VALID,84,VALID,0,
2000-10-07, 03:06:00,VALID,917.436,VALID,0,VALID,96.3088,VALID,0.0339617,VALID,19.9882,VALID,84,VALID,0,
2000-10-07, 03:07:00,VALID,917.448,VALID,0,VALID,96.2299,VALID,0.0169808,VALID,19.9716,VALID,84,VALID,0,
2000-10-07, 03:08:00,VALID,917.445,VALID,0,VALID,96.2427,VALID,0.0339617,VALID,19.9758,VALID,84,VALID,0,
2000-10-07, 03:09:00,VALID,917.454,VALID,0,VALID,96.38,VALID,0.0339617,VALID,19.9726,VALID,84,VALID,0,
2000-10-07, 03:10:00,VALID,917.458,VALID,0,VALID,96.4817,VALID,0,VALID,19.9664,VALID,84,VALID,0,
2000-10-07, 03:11:00,VALID,917.46,VALID,0,VALID,96.5733,VALID,0,VALID,19.9664,VALID,84,VALID,0,
2000-10-07, 03:12:00,VALID,917.458,VALID,0,VALID,96.6102,VALID,0,VALID,19.9629,VALID,84,VALID,0,
2000-10-07, 03:13:00,VALID,917.451,VALID,0,VALID,96.647,VALID,0,VALID,19.9532,VALID,84,VALID,0,
2000-10-07, 03:14:00,VALID,917.459,VALID,0,VALID,96.5046,VALID,0,VALID,19.9403,VALID,84,VALID,0,
2000-10-07, 03:15:00,VALID,917.452,VALID,0,VALID,96.2554,VALID,0,VALID,19.9244,VALID,86,VALID,0,
2000-10-07, 03:16:00,VALID,917.459,VALID,0,VALID,96.1549,VALID,-0.101885,VALID,19.9127,VALID,102,VALID,0,
2000-10-07, 03:17:00,VALID,917.456,VALID,0,VALID,95.9629,VALID,-0.101885,VALID,19.8901,VALID,103,VALID,0,
2000-10-07, 03:18:00,VALID,917.449,VALID,0,VALID,95.9909,VALID,-0.101885,VALID,19.868,VALID,103,VALID,0,
2000-10-07, 03:19:00,VALID,917.449,VALID,0,VALID,95.9807,VALID,-0.101885,VALID,19.8518,VALID,103,VALID,0,
2000-10-07, 03:20:00,VALID,917.435,VALID,0,VALID,96.0328,VALID,-0.101885,VALID,19.7996,VALID,103,VALID,0,
2000-10-07, 03:21:00,VALID,917.437,VALID,0,VALID,96.1753,VALID,-0.101885,VALID,19.784,VALID,104,VALID,0,
2000-10-07, 03:22:00,VALID,917.438,VALID,0,VALID,96.3329,VALID,-0.101885,VALID,19.777,VALID,105,VALID,0,
2000-10-07, 03:23:00,VALID,917.434,VALID,0,VALID,96.3775,VALID,-0.101885,VALID,19.7743,VALID,105,VALID,0,
2000-10-07, 03:24:00,VALID,917.435,VALID,0,VALID,96.4665,VALID,-0.101885,VALID,19.7743,VALID,105,VALID,0,
2000-10-07, 03:25:00,VALID,917.451,VALID,0,VALID,96.5135,VALID,-0.101885,VALID,19.7807,VALID,105,VALID,0,
2000-10-07, 03:26:00,VALID,917.456,VALID,0,VALID,96.4372,VALID,-0.118866,VALID,19.771,VALID,105,VALID,0,
2000-10-07, 03:27:00,VALID,917.458,VALID,0,VALID,96.3686,VALID,-0.101885,VALID,19.7643,VALID,105,VALID,0,
2000-10-07, 03:28:00,VALID,917.457,VALID,0,VALID,96.2376,VALID,-0.101885,VALID,19.7643,VALID,105,VALID,0,
2000-10-07, 03:29:00,VALID,917.471,VALID,0,VALID,96.2808,VALID,-0.101885,VALID,19.7549,VALID,105,VALID,0,
2000-10-07, 03:30:00,VALID,917.474,VALID,0,VALID,96.3304,VALID,-0.101885,VALID,19.7616,VALID,105,VALID,0,
2000-10-07, 03:31:00,VALID,917.487,VALID,0,VALID,96.2846,VALID,0,VALID,19.7502,VALID,105,VALID,0,
2000-10-07, 03:32:00,VALID,917.499,VALID,0,VALID,96.2681,VALID,0,VALID,19.7435,VALID,105,VALID,0,
2000-10-07, 03:33:00,VALID,917.509,VALID,0,VALID,96.3329,VALID,-0.0169808,VALID,19.7372,VALID,105,VALID,0,
2000-10-07, 03:34:00,VALID,917.521,VALID,0,VALID,96.4309,VALID,0,VALID,19.7372,VALID,105,VALID,0,
2000-10-07, 03:35:00,VALID,917.529,VALID,0,VALID,96.5644,VALID,0,VALID,19.7534,VALID,105,VALID,0,
2000-10-07, 03:36:00,VALID,917.525,VALID,0,VALID,96.6,VALID,0,VALID,19.7663,VALID,151,VALID,0,
2000-10-07, 03:37:00,VALID,917.534,VALID,0,VALID,96.4944,VALID,0,VALID,19.7696,VALID,250,VALID,0,
2000-10-07, 03:38:00,VALID,917.555,VALID,0,VALID,96.4385,VALID,0,VALID,19.7599,VALID,250,VALID,0,
2000-10-07, 03:39:00,VALID,917.564,VALID,0,VALID,96.4919,VALID,-0.0169808,VALID,19.7566,VALID,250,VALID,0,
2000-10-07, 03:40:00,VALID,917.571,VALID,0,VALID,96.5517,VALID,-0.0169808,VALID,19.7502,VALID,250,VALID,0,
2000-10-07, 03:41:00,VALID,917.558,VALID,0,VALID,96.5936,VALID,-0.0169808,VALID,19.7536,VALID,250,VALID,0,
2000-10-07, 03:42:00,VALID,917.565,VALID,0,VALID,96.6432,VALID,0,VALID,19.7469,VALID,250,VALID,0,
2000-10-07, 03:43:00,VALID,917.561,VALID,0,VALID,96.7538,VALID,0,VALID,19.7467,VALID,261,VALID,0,
2000-10-07, 03:44:00,VALID,917.554,VALID,0,VALID,96.9103,VALID,-0.0169808,VALID,19.7604,VALID,266,VALID,0,
2000-10-07, 03:45:00,VALID,917.538,VALID,0,VALID,96.9853,VALID,0.0169808,VALID,19.7599,VALID,266,VALID,0,